Charlottetown, Prince Edward Island

6:26 AM ADT on October 01, 2016 (GMT -0300)
Charlottetown

Weather History for CYYG - July, 2013

Change the Weather History Date:

Sunday, July 7, 2013

  Actual Average Record
Temperature  
Mean Temperature 74 °F -  
Max Temperature 84 °F 70 °F 84 °F (2013)
Min Temperature 64 °F 55 °F 50 °F (2016)
Cooling Degree Days 9    
Growing Degree Days 24 (Base 50)    
Moisture  
Dew Point 65 °F    
Average Humidity 74    
Maximum Humidity 94    
Minimum Humidity 51    
Precipitation  
Precipitation 0.59 in - - ()
Sea Level Pressure  
Sea Level Pressure 29.80 in    
Wind  
Wind Speed 7 mph ()    
Max Wind Speed 12 mph    
Max Gust Speed 22 mph    
Visibility 13.6 miles    
Events Rain    
Averages and records for this station are not official NWS values.
T = Trace of Precipitation, MM = Missing Value Source: Averaged Metar Reports

Daily Weather History Graph

Daily Weather History Graph

Search for Another Location

Airport or City:

Trip Planner

Search our weather history database for the weather conditions in past years. The results will help you decide how hot, cold, wet, or windy it might be!

Date:

Astronomy

Jul. 07, 2013 Rise Set
Actual Time 5:28 AM ADT 9:05 PM ADT
Civil Twilight 4:50 AM ADT 9:43 PM ADT
Nautical Twilight 3:59 AM ADT 10:34 PM ADT
Astronomical Twilight 2:50 AM ADT 11:43 PM ADT
Moon 5:04 AM ADT (7/7) 8:22 PM ADT (7/7)
Length of Visible Light 16h 53m
Length of Day
15h 37m
Waning Crescent, 0% of the Moon is Illuminated
Jul 7
Waning Crescent
Jul 8
New
Jul 16
First Quarter
Jul 22
Full
Jul 29
Last Quarter

Hourly Weather History & Observations

Time (ADT) Temp. Heat Index Dew Point Humidity Pressure Visibility Wind Dir Wind Speed Gust Speed Precip Events Conditions
12:00 AM 71.6 °F - 66.2 °F 83% 29.78 in 12.0 mi WSW 9.2 mph - N/A   Clear
1:00 AM 71.6 °F - 66.2 °F 83% 29.77 in 12.0 mi WSW 10.4 mph - N/A   Partly Cloudy
2:00 AM 71.6 °F - 66.2 °F 83% 29.77 in 12.0 mi West 8.1 mph - N/A   Partly Cloudy
3:00 AM 70 °F - 64 °F 76% 29.77 in 12 mi West 6.9 mph - -   Haze
3:00 AM 69.8 °F - 64.4 °F 83% 29.77 in 12.0 mi West 6.9 mph - N/A   Partly Cloudy
4:00 AM 71.6 °F - 62.6 °F 73% 29.77 in 12.0 mi West 9.2 mph - N/A   Clear
5:00 AM 69.8 °F - 62.6 °F 78% 29.77 in 15.0 mi West 5.8 mph - N/A   Scattered Clouds
6:00 AM 69.8 °F - 62.6 °F 78% 29.78 in 15.0 mi WSW 8.1 mph - N/A   Scattered Clouds
7:00 AM 71.6 °F - 64.4 °F 78% 29.79 in 15.0 mi West 10.4 mph - N/A   Scattered Clouds
8:00 AM 73.4 °F - 66.2 °F 78% 29.79 in 15.0 mi West 5.8 mph - N/A   Partly Cloudy
9:00 AM 77 °F - 66 °F 60% 29.79 in 15 mi WSW 9.2 mph - -   Clear
9:00 AM 77.0 °F - 66.2 °F 69% 29.79 in 15.0 mi WSW 9.2 mph - N/A   Partly Cloudy
10:00 AM 78.8 °F - 66.2 °F 65% 29.79 in 15.0 mi West 10.4 mph - N/A   Partly Cloudy
11:00 AM 80.6 °F 82.7 °F 66.2 °F 61% 29.81 in 15.0 mi WNW 11.5 mph 21.9 mph N/A   Partly Cloudy
12:00 PM 82.4 °F 84.6 °F 66.2 °F 58% 29.80 in 15.0 mi West 9.2 mph - N/A   Scattered Clouds
1:00 PM 82.4 °F 84.6 °F 66.2 °F 58% 29.79 in 15.0 mi West 6.9 mph - N/A   Mostly Cloudy
2:00 PM 82.4 °F 85.4 °F 68.0 °F 62% 29.80 in 15.0 mi NNW 8.1 mph - N/A   Mostly Cloudy
3:00 PM 81 °F - 66 °F 51% 29.81 in 15 mi NNW 9.2 mph - -   Scattered Clouds
3:00 PM 80.6 °F 82.7 °F 66.2 °F 61% 29.81 in 15.0 mi North 6.9 mph - N/A   Mostly Cloudy
4:00 PM 78.8 °F - 64.4 °F 61% 29.80 in 15.0 mi North 9.2 mph - N/A   Mostly Cloudy
4:19 PM 77.0 °F - 62.6 °F 61% 29.80 in 12.0 mi North 8.1 mph - N/A Rain Light Rain Showers
4:24 PM 73.4 °F - 64.4 °F 73% 29.82 in 4.0 mi North 10.4 mph 20.7 mph N/A Rain Heavy Rain Showers
4:51 PM 69.8 °F - 68.0 °F 94% 29.82 in 15.0 mi NE 3.5 mph - N/A Rain Light Rain Showers
5:00 PM 71.6 °F - 68.0 °F 88% 29.81 in 15.0 mi NNE 6.9 mph - N/A Rain Light Rain Showers
5:16 PM 71.6 °F - 68.0 °F 88% 29.82 in 15.0 mi North 5.8 mph - N/A   Mostly Cloudy
6:00 PM 73.4 °F - 68.0 °F 83% 29.81 in 15.0 mi NNE 3.5 mph - N/A   Mostly Cloudy
7:00 PM 73.4 °F - 69.8 °F 88% 29.81 in 15.0 mi North 6.9 mph - N/A   Mostly Cloudy
8:00 PM 71.6 °F - 66.2 °F 83% 29.83 in 15.0 mi NE 4.6 mph - N/A   Scattered Clouds
9:00 PM 66 °F - 61 °F 78% 29.86 in 15 mi NE 9.2 mph - -   Partly Cloudy
9:00 PM 66.2 °F - 60.8 °F 83% 29.85 in 15.0 mi NNE 9.2 mph - N/A   Mostly Cloudy
10:00 PM 64.4 °F - 60.8 °F 88% 29.87 in 10.0 mi NE 5.8 mph - N/A   Scattered Clouds
11:00 PM 64.4 °F - 57.2 °F 77% 29.88 in 7.0 mi NE 6.9 mph - N/A   Overcast